TimeCDT,TemperatureF,Dew PointF,Humidity,Sea Level PressureIn,VisibilityMPH,Wind Direction,Wind SpeedMPH,Gust SpeedMPH,PrecipitationIn,Events,Conditions,WindDirDegrees,DateUTC
12:41 AM,53.6,51.8,94,29.94,4.0,NW,4.6,-,0.00,,Light Drizzle,310,2013-04-28 05:41:00
12:51 AM,53.1,51.1,93,29.94,3.0,NW,4.6,-,0.00,,Light Drizzle,310,2013-04-28 05:51:00
1:39 AM,53.6,51.8,94,29.93,2.5,WNW,4.6,-,0.00,,Light Drizzle,300,2013-04-28 06:39:00
1:51 AM,53.1,51.1,93,29.92,2.5,WNW,5.8,-,0.00,,Light Drizzle,290,2013-04-28 06:51:00
2:51 AM,53.1,51.1,93,29.91,2.0,WNW,8.1,-,0.01,,Light Drizzle,300,2013-04-28 07:51:00
3:14 AM,53.6,51.8,94,29.91,1.8,NW,6.9,-,0.00,,Light Drizzle,310,2013-04-28 08:14:00
3:28 AM,53.6,51.8,94,29.91,0.8,WNW,6.9,-,0.00,,Light Drizzle,300,2013-04-28 08:28:00
3:47 AM,53.6,51.8,94,29.91,0.1,WNW,9.2,-,0.00,Fog,Heavy Drizzle,290,2013-04-28 08:47:00
3:51 AM,53.1,51.1,93,29.91,0.1,WNW,5.8,-,0.00,Fog,Heavy Drizzle,300,2013-04-28 08:51:00
4:11 AM,53.6,51.8,94,29.91,0.8,WNW,8.1,-,0.00,,Light Drizzle,300,2013-04-28 09:11:00
4:20 AM,53.6,51.8,94,29.90,1.8,NW,9.2,-,0.00,,Light Drizzle,310,2013-04-28 09:20:00
4:38 AM,53.6,51.8,94,29.91,2.0,WNW,6.9,-,0.00,,Light Drizzle,300,2013-04-28 09:38:00
4:51 AM,53.1,51.1,93,29.91,2.5,NW,6.9,-,0.00,,Light Drizzle,310,2013-04-28 09:51:00
5:09 AM,53.6,51.8,94,29.91,3.0,NW,8.1,-,0.00,,Light Drizzle,310,2013-04-28 10:09:00
5:51 AM,53.1,50.0,89,29.91,3.0,NW,8.1,-,0.00,,Light Drizzle,310,2013-04-28 10:51:00
6:23 AM,53.6,50.0,88,29.92,4.0,WNW,6.9,-,0.00,,Light Drizzle,300,2013-04-28 11:23:00
6:42 AM,53.6,50.0,88,29.93,2.5,WNW,6.9,-,0.00,,Light Drizzle,300,2013-04-28 11:42:00
6:51 AM,53.1,51.1,93,29.93,2.0,WNW,6.9,-,0.00,,Light Drizzle,290,2013-04-28 11:51:00
7:01 AM,53.6,50.0,88,29.93,3.0,WNW,6.9,-,0.00,,Light Drizzle,290,2013-04-28 12:01:00
7:20 AM,53.6,50.0,88,29.94,4.0,WNW,6.9,-,0.00,,Light Drizzle,290,2013-04-28 12:20:00
7:30 AM,53.6,50.0,88,29.95,5.0,WNW,8.1,-,0.00,,Light Drizzle,290,2013-04-28 12:30:00
7:51 AM,53.1,50.0,89,29.95,5.0,WNW,5.8,-,0.00,,Overcast,300,2013-04-28 12:51:00
7:58 AM,53.6,51.8,94,29.95,5.0,WNW,8.1,-,N/A,,Overcast,290,2013-04-28 12:58:00
8:23 AM,53.6,50.0,88,29.95,4.0,WNW,11.5,-,N/A,,Overcast,300,2013-04-28 13:23:00
8:51 AM,54.0,51.1,90,29.95,4.0,WNW,9.2,-,N/A,,Overcast,300,2013-04-28 13:51:00
9:40 AM,53.6,50.0,88,29.96,5.0,WNW,11.5,-,N/A,,Overcast,290,2013-04-28 14:40:00
9:51 AM,54.0,50.0,86,29.96,5.0,WNW,12.7,-,N/A,,Overcast,290,2013-04-28 14:51:00
10:22 AM,55.4,50.0,82,29.96,6.0,NW,13.8,19.6,N/A,,Haze,310,2013-04-28 15:22:00
10:51 AM,55.0,50.0,83,29.97,8.0,West,15.0,-,N/A,,Overcast,280,2013-04-28 15:51:00
11:46 AM,55.4,50.0,82,29.97,9.0,West,15.0,-,N/A,,Overcast,280,2013-04-28 16:46:00
11:51 AM,55.9,50.0,80,29.97,9.0,West,12.7,-,N/A,,Overcast,280,2013-04-28 16:51:00
12:51 PM,57.9,48.9,72,29.96,10.0,NW,10.4,-,N/A,,Overcast,310,2013-04-28 17:51:00
1:51 PM,57.0,48.9,74,29.95,10.0,NW,13.8,17.3,N/A,,Overcast,310,2013-04-28 18:51:00
2:51 PM,57.9,48.9,72,29.96,10.0,WNW,6.9,-,N/A,,Overcast,300,2013-04-28 19:51:00
3:51 PM,57.9,48.9,72,29.94,10.0,WNW,6.9,-,N/A,,Overcast,290,2013-04-28 20:51:00
5:51 PM,57.0,48.9,74,29.93,10.0,West,4.6,-,N/A,,Overcast,260,2013-04-28 22:51:00
6:51 PM,57.0,48.0,72,29.92,10.0,WSW,5.8,-,N/A,,Overcast,240,2013-04-28 23:51:00
7:51 PM,57.0,48.0,72,29.93,10.0,SSW,3.5,-,N/A,,Overcast,200,2013-04-29 00:51:00
8:51 PM,57.0,48.0,72,29.94,10.0,SW,4.6,-,N/A,,Overcast,230,2013-04-29 01:51:00
9:51 PM,57.0,48.0,72,29.94,10.0,South,4.6,-,N/A,,Overcast,180,2013-04-29 02:51:00
10:51 PM,55.0,48.0,77,29.94,10.0,SSE,3.5,-,N/A,,Scattered Clouds,160,2013-04-29 03:51:00
11:51 PM,50.0,45.0,83,29.94,10.0,SE,5.8,-,N/A,,Partly Cloudy,130,2013-04-29 04:51:00